Starlink 35819

operational
NORAD ID: 66285 Int'l Des: 2025-247 Owner: SPXS Country: US Constellation: starlink
NOTLE

Starlink 35819について

説明を読み込み中...

リアルタイム位置

3D地球を読み込み中...

次回通過

高度履歴

Altitude vs Time

uPlot chart will show altitude changes over time

軌道要素

1 66285U 25247W 25352.89863441 .00031032 00000-0 78207-3 0 9993
2 66285 53.1578 208.1602 0000911 102.0418 258.0689 15.39641775 8648
Epoch: Dec 18, 2025 • Age: 8 hours

現在のステータス

高度 452.9 km
速度 7.65 km/s
衛星直下点 52.46°N, 108.7°E
打ち上げ日 Oct 31, 2025
運用期間 0.1 years
タイプ internet

技術仕様

分類 Payload
質量 575.00 kg
乾燥質量 530.00 kg
総質量 575.00 kg
長さ 0.30 m
直径 4.10 m
スパン 29.00 m
形状 Box + pan
製造者 SPXS
バスタイプ Starlink V2MO
フェーズステータス In Orbit
所有者/国 SPXS/US

大規模コンステレーション

Loading constellations...